User: anonymous   Login
Location: Iola
(37.9240°N, 95.4000°W)
Time: 21:07:19
(UTC-05:00)
Language:

Meteor 2-10 Rocket - Orbit

View from above orbital plane
View from above orbital plane
View from above satellite
View from above satellite

Ground track
Ground track

The orbit data is extracted from the following two-line orbital elements,

1 14453U 83109B   16209.70667683 +.00000026 +00000-0 +57194-5 0  9998
2 14453 081.1658 072.7288 0103962 282.5825 076.3743 14.24651950701257
Epoch (UTC): 27 July 2016 16:57:36
Eccentricity: 0.0103962
inclination: 81.1658°
perigee height: 735 km
apogee height: 884 km
right ascension of ascending node: 72.7288°
argument of perigee: 282.5825°
revolutions per day: 14.24651950
mean anomaly at epoch: 76.3743°
orbit number at epoch: 70125

The dashed part of the orbit path shows where the satellite is in the earth's shadow,  

DLR